Location: Aula-Vintri
(58.3875°N, 22.4322°E)
Time: 12:27:17
(UTC+00:00)

Terra - Pass Details

Date: 13 October 2019
Orbit: 701 x 703 km, 98.2° (Epoch: 15 November)

Event Time Altitude Azimuth Distance (km) Brightness Sun altitude
Exits shadow 20:03:14 30° 346° (NNW) 1,250 3.5 -33.4°
Drops below altitude 10° 20:05:40 10° 344° (NNW) 2,186 5.0 -33.6°
Sets 20:07:56 0° 344° (NNW) 3,108 6.0 -33.8°
